TimeEDT,TemperatureF,Dew PointF,Humidity,Sea Level PressureIn,VisibilityMPH,Wind Direction,Wind SpeedMPH,Gust SpeedMPH,PrecipitationIn,Events,Conditions,WindDirDegrees,DateUTC
12:25 AM,31.8,-9999,N/A,29.71,-9999.0,Calm,Calm,-,N/A,,Unknown,0,2013-03-27 04:25:00
1:25 AM,32.2,-9999,N/A,29.71,-9999.0,Calm,Calm,-,N/A,,Unknown,0,2013-03-27 05:25:00
2:25 AM,31.5,-9999,N/A,29.71,-9999.0,Calm,Calm,-,0.01,,Unknown,0,2013-03-27 06:25:00
3:25 AM,31.5,-9999,N/A,29.71,-9999.0,Calm,Calm,-,0.00,,Unknown,0,2013-03-27 07:25:00
4:25 AM,31.5,-9999,N/A,29.71,-9999.0,Calm,Calm,-,0.01,,Unknown,0,2013-03-27 08:25:00
5:25 AM,31.6,-9999,N/A,29.72,-9999.0,Calm,Calm,-,0.01,,Unknown,0,2013-03-27 09:25:00
6:25 AM,31.6,-9999,N/A,29.73,-9999.0,Calm,Calm,-,0.01,,Unknown,0,2013-03-27 10:25:00
7:26 AM,32.2,-9999,N/A,29.75,-9999.0,Calm,Calm,-,0.01,,Unknown,0,2013-03-27 11:26:00
8:25 AM,33.4,-9999,N/A,29.76,-9999.0,Calm,Calm,-,0.01,,Unknown,0,2013-03-27 12:25:00
9:26 AM,34.0,-9999,N/A,29.77,-9999.0,Variable,2.3,-,0.01,,Unknown,0,2013-03-27 13:26:00
10:25 AM,35.8,-9999,N/A,29.78,-9999.0,Variable,2.3,-,0.01,,Unknown,0,2013-03-27 14:25:00
11:25 AM,36.9,-9999,N/A,29.79,-9999.0,Variable,3.5,-,0.00,,Unknown,0,2013-03-27 15:25:00
12:25 PM,37.8,33.8,86,29.80,-9999.0,NNE,6.9,13.8,N/A,,Unknown,20,2013-03-27 16:25:00
1:29 PM,37.4,33.3,85,29.81,-9999.0,Variable,4.6,-,0.01,,Unknown,0,2013-03-27 17:29:00
2:25 PM,37.4,38.1,100,29.81,-9999.0,Variable,6.9,-,0.01,,Unknown,0,2013-03-27 18:25:00
3:25 PM,37.9,34.2,86,29.82,-9999.0,Variable,5.8,13.8,N/A,,Unknown,0,2013-03-27 19:25:00
4:25 PM,38.8,33.6,82,29.83,-9999.0,Variable,4.6,-,N/A,,Unknown,0,2013-03-27 20:25:00
5:25 PM,38.1,34.2,86,29.84,-9999.0,Calm,Calm,-,N/A,,Unknown,0,2013-03-27 21:25:00
6:25 PM,37.4,-9999,N/A,29.86,-9999.0,Variable,2.3,-,N/A,,Unknown,0,2013-03-27 22:25:00
7:25 PM,34.0,-9999,N/A,29.87,-9999.0,Calm,Calm,-,N/A,,Unknown,0,2013-03-27 23:25:00
8:25 PM,33.8,-9999,N/A,29.88,-9999.0,Calm,Calm,-,N/A,,Unknown,0,2013-03-28 00:25:00
9:25 PM,32.7,-9999,N/A,29.90,-9999.0,Calm,Calm,-,N/A,,Unknown,0,2013-03-28 01:25:00
10:25 PM,34.0,-9999,N/A,29.90,-9999.0,Calm,Calm,-,0.00,,Unknown,0,2013-03-28 02:25:00
11:25 PM,33.6,-9999,N/A,29.90,-9999.0,Variable,2.3,-,0.01,,Unknown,0,2013-03-28 03:25:00